Total_Precipitation_Accumulation
0.31 0.34 0.34 0.35 0.38 0.37 0.35 0.37 0.37 0.35 0.33 0.31 0.29 0.26 0.20 0.19 0.21 0.24 0.25 0.30 0.35 0.44 0.52 0.52 0.52 0.63 0.71 0.65 0.64 0.64 0.69 0.74 0.73 0.71 0.84 0.88 0.77 0.58 0.52 0.54 0.55 0.56 0.47
0.25 0.30 0.29 0.31 0.33 0.35 0.33 0.34 0.37 0.40 0.40 0.37 0.34 0.32 0.26 0.22 0.24 0.26 0.25 0.28 0.36 0.45 0.60 0.75 0.76 0.71 0.69 0.67 0.66 0.67 0.73 0.85 0.85 0.77 0.83 0.90 0.87 0.77 0.67 0.57 0.48 0.49 0.53
0.24 0.28 0.30 0.30 0.31 0.35 0.36 0.33 0.32 0.33 0.41 0.44 0.42 0.40 0.36 0.35 0.35 0.32 0.29 0.30 0.33 0.37 0.48 0.71 0.90 1.03 0.94 0.77 0.68 0.65 0.72 0.86 0.97 0.90 0.89 1.04 1.05 0.97 0.82 0.64 0.51 0.49 0.45
0.26 0.30 0.32 0.32 0.34 0.36 0.38 0.41 0.41 0.39 0.43 0.49 0.52 0.52 0.49 0.45 0.41 0.38 0.41 0.40 0.36 0.35 0.41 0.50 0.61 0.82 0.98 1.04 0.92 0.79 0.77 0.84 0.94 0.95 1.05 1.28 1.33 1.21 0.96 0.77 0.66 0.56 0.49
0.45 0.50 0.53 0.50 0.50 0.52 0.54 0.52 0.55 0.55 0.54 0.63 0.66 0.65 0.62 0.58 0.48 0.48 0.53 0.48 0.48 0.45 0.44 0.44 0.41 0.49 0.62 0.79 0.89 0.96 0.94 0.88 0.92 0.99 1.21 1.63 1.67 1.43 1.05 0.86 0.78 0.73 0.63
0.75 0.85 0.85 0.85 0.85 0.82 0.80 0.74 0.76 0.81 0.87 0.88 0.85 0.83 0.77 0.64 0.59 0.55 0.53 0.51 0.54 0.55 0.54 0.51 0.43 0.39 0.41 0.50 0.61 0.75 0.90 0.94 0.94 1.01 1.21 1.51 1.67 1.57 1.31 1.09 0.86 0.73 0.66
0.77 0.85 0.92 0.92 0.93 0.99 1.01 1.00 0.98 1.01 1.01 1.00 0.98 0.95 0.91 0.87 0.74 0.58 0.50 0.50 0.52 0.55 0.62 0.64 0.48 0.34 0.40 0.44 0.51 0.55 0.61 0.71 0.83 0.92 1.06 1.26 1.54 1.68 1.51 1.14 0.97 0.88 0.70
0.85 0.89 0.96 1.01 1.05 1.08 1.05 1.00 0.93 0.91 0.88 0.85 0.84 0.84 0.87 0.82 0.73 0.56 0.47 0.46 0.51 0.54 0.58 0.61 0.57 0.46 0.44 0.47 0.50 0.48 0.46 0.47 0.53 0.65 0.78 1.00 1.28 1.60 1.76 1.51 1.31 1.14 0.93
0.92 0.98 1.05 1.11 1.14 1.05 0.94 0.92 0.85 0.81 0.74 0.68 0.65 0.68 0.73 0.76 0.70 0.57 0.54 0.51 0.52 0.52 0.53 0.56 0.58 0.52 0.45 0.37 0.41 0.42 0.41 0.42 0.41 0.46 0.56 0.74 0.98 1.29 1.64 1.76 1.48 1.14 0.98
0.85 0.89 0.92 0.96 1.04 1.06 0.95 0.91 0.88 0.88 0.83 0.79 0.72 0.69 0.68 0.75 0.73 0.59 0.55 0.53 0.56 0.58 0.68 0.71 0.65 0.56 0.47 0.34 0.35 0.40 0.39 0.36 0.41 0.43 0.44 0.52 0.66 0.91 1.25 1.44 1.44 1.15 0.92
0.64 0.63 0.68 0.75 0.81 0.83 0.85 0.86 0.90 0.90 0.87 0.78 0.67 0.61 0.61 0.67 0.74 0.62 0.55 0.54 0.59 0.66 0.74 0.82 0.78 0.63 0.45 0.34 0.31 0.34 0.31 0.35 0.43 0.47 0.48 0.52 0.66 0.83 1.00 1.22 1.35 1.26 1.01
0.61 0.64 0.67 0.70 0.67 0.63 0.70 0.75 0.80 0.83 0.79 0.71 0.62 0.56 0.57 0.55 0.54 0.56 0.45 0.40 0.46 0.57 0.68 0.84 0.88 0.72 0.54 0.40 0.32 0.28 0.26 0.27 0.33 0.39 0.42 0.44 0.52 0.65 0.83 1.09 1.31 1.32 1.17
0.65 0.66 0.68 0.66 0.62 0.61 0.60 0.60 0.60 0.61 0.57 0.49 0.43 0.46 0.50 0.50 0.44 0.37 0.31 0.24 0.28 0.45 0.60 0.84 0.94 0.81 0.68 0.54 0.43 0.38 0.32 0.28 0.31 0.33 0.31 0.32 0.37 0.49 0.70 1.04 1.38 1.51 1.40
0.62 0.55 0.49 0.48 0.48 0.53 0.58 0.57 0.56 0.54 0.47 0.41 0.38 0.42 0.43 0.44 0.41 0.40 0.38 0.29 0.29 0.41 0.49 0.62 0.77 0.83 0.76 0.70 0.59 0.48 0.39 0.35 0.33 0.35 0.35 0.38 0.46 0.58 0.71 0.86 1.17 1.41 1.43
0.60 0.55 0.51 0.49 0.50 0.51 0.53 0.52 0.46 0.45 0.37 0.34 0.34 0.41 0.42 0.41 0.35 0.31 0.37 0.39 0.39 0.45 0.46 0.59 0.75 0.88 0.90 0.87 0.84 0.73 0.62 0.56 0.49 0.47 0.53 0.54 0.59 0.66 0.69 0.78 0.99 1.19 1.20
0.60 0.52 0.48 0.46 0.49 0.51 0.50 0.49 0.41 0.31 0.26 0.23 0.23 0.27 0.30 0.27 0.19 0.15 0.19 0.24 0.26 0.29 0.35 0.52 0.70 0.87 1.00 1.05 1.08 1.02 0.92 0.82 0.74 0.71 0.73 0.71 0.70 0.74 0.76 0.78 0.91 1.06 1.07
0.57 0.53 0.47 0.43 0.45 0.44 0.42 0.43 0.46 0.37 0.21 0.16 0.17 0.18 0.20 0.16 0.13 0.14 0.16 0.20 0.20 0.19 0.24 0.42 0.58 0.73 0.91 1.06 1.09 1.06 0.98 0.97 0.97 0.96 0.95 0.91 0.85 0.84 0.87 0.85 0.86 0.98 1.05
0.48 0.47 0.45 0.44 0.43 0.39 0.35 0.35 0.38 0.44 0.41 0.32 0.22 0.18 0.18 0.15 0.18 0.21 0.20 0.21 0.20 0.19 0.23 0.39 0.52 0.66 0.81 0.99 1.05 1.05 1.07 1.10 1.10 1.06 1.07 1.07 1.04 0.98 0.97 0.95 0.91 0.92 1.01
0.37 0.32 0.28 0.27 0.28 0.29 0.29 0.30 0.33 0.38 0.44 0.50 0.42 0.25 0.22 0.21 0.28 0.36 0.28 0.29 0.32 0.31 0.32 0.38 0.46 0.58 0.75 0.93 1.07 1.12 1.14 1.14 1.13 1.14 1.14 1.15 1.17 1.11 1.01 1.00 1.04 1.02 1.00
0.25 0.23 0.18 0.13 0.16 0.23 0.29 0.31 0.32 0.36 0.43 0.53 0.50 0.34 0.29 0.31 0.47 0.57 0.46 0.47 0.50 0.47 0.48 0.52 0.55 0.62 0.79 0.96 1.08 1.18 1.23 1.20 1.16 1.17 1.18 1.18 1.18 1.16 1.06 1.05 1.13 1.11 0.98
0.18 0.16 0.14 0.10 0.15 0.24 0.29 0.30 0.31 0.38 0.47 0.57 0.53 0.35 0.29 0.39 0.64 0.75 0.70 0.69 0.67 0.64 0.64 0.61 0.56 0.60 0.75 0.91 1.02 1.13 1.22 1.21 1.15 1.13 1.19 1.24 1.17 1.11 1.07 1.08 1.12 1.17 1.12
0.18 0.16 0.15 0.14 0.21 0.26 0.25 0.32 0.42 0.50 0.56 0.61 0.56 0.42 0.40 0.53 0.74 0.81 0.76 0.75 0.74 0.72 0.68 0.65 0.61 0.63 0.75 0.89 0.96 1.06 1.20 1.21 1.18 1.16 1.22 1.30 1.25 1.15 1.11 1.09 1.09 1.18 1.23
0.22 0.22 0.19 0.21 0.28 0.27 0.29 0.38 0.50 0.56 0.58 0.61 0.60 0.59 0.61 0.69 0.75 0.79 0.77 0.73 0.71 0.73 0.75 0.77 0.77 0.77 0.83 0.93 0.98 1.06 1.20 1.20 1.16 1.17 1.22 1.25 1.23 1.18 1.16 1.11 1.10 1.16 1.20
0.18 0.21 0.21 0.20 0.22 0.27 0.33 0.37 0.42 0.47 0.49 0.51 0.54 0.57 0.59 0.63 0.67 0.69 0.69 0.69 0.71 0.73 0.76 0.83 0.85 0.86 0.89 0.93 0.95 0.96 1.06 1.05 0.98 0.96 1.01 1.07 1.09 1.09 1.09 1.06 1.03 1.05 1.10
0.19 0.22 0.23 0.23 0.22 0.25 0.30 0.35 0.41 0.46 0.50 0.50 0.51 0.54 0.57 0.57 0.60 0.65 0.69 0.70 0.70 0.71 0.71 0.72 0.76 0.80 0.78 0.74 0.77 0.80 0.84 0.79 0.74 0.74 0.84 0.94 0.95 0.94 0.94 0.92 0.92 0.97 1.04
0.20 0.25 0.28 0.32 0.31 0.30 0.33 0.40 0.46 0.46 0.49 0.48 0.52 0.55 0.60 0.62 0.62 0.66 0.67 0.67 0.66 0.67 0.65 0.67 0.69 0.65 0.64 0.63 0.59 0.60 0.58 0.55 0.56 0.60 0.65 0.74 0.81 0.81 0.84 0.86 0.84 0.89 0.95